OBJECT D, 62380

Orbit data source: Space-Track

You're viewing an Uncataloged Satellite

Recently launched and/or uncataloged satellites may have evolving metadata. Metadata may include but not limited to: Owner, Maufacturer, Bus, Motor, and Mission.

OBJECT D, 62380 is a satellite in LEO that was launched on Sat, 21 Dec 2024 UTC via an FALCON 9 launch vehicle from the Air Force Western Test Range (AFWTR). Unknown objects in Earth's orbit typically refer to objects detected orbiting the Earth but have not yet been identified or cataloged. These objects could be anything from previously untracked satellites, spent rocket stages, debris from satellite collisions, or even natural meteoroids temporarily captured by Earth's gravity.

Loading next visibility...
Identifier
62380, 2024-247D
Orbit
LEO
Country
Flag of TBDTBD
Related business
None
Manufacturer
ONDO Space
Mission
Operational Commercial Communications
Bus & Motor
CUBESAT 0.5U, Unknown motor
Mass
0.25 kg wet, 0.25 kg dry
Launch date (UTC)
2024-12-21 (8 months ago)
Launch vehicle
FALCON 9
Launch site
Air Force Western Test Range (AFWTR)
Object type
Unknown
Shape & HBR
Box, 0.0 m
Radar Cross Section
0.004 m², Medium (>0.1 m² and < 1m²)

Expand to show TLE details & history
Last TLE update: 19 hours ago

TLE from 19 hours ago
0 OBJECT D
1 62380U 24247D   25241.27732819  .00010774  00000-0  44551-3 0  9992
2 62380  44.9931  83.7306 0002743 183.8606 176.2255 15.24164145 38356
Epoch: 2025-08-29T06:39Z
TLE epoch observation values (Epoch: 2025-08-29T06:39:21.155Z)
Latitude
-0.00001°
Longitude
6.16416°
Altitude
495.175 km
Speed
7.618 km/s
True Right ascension
05h 34m 55s
True Declination
0° 00' 00"
Sunlit
Object was in daylight at epoch
Visualization orbit readout
Latitude
Unknown
Longitude
Unknown
Altitude
Unknown
Speed
Unknown
Apparent Right ascension
Unknown
Apparent Declination
Unknown
Sunlit
N/A
Visualization observer readout
Local Sidereal Time
17:00:34
Azimuth
Unknown
Elevation
Unknown
Doppler factor
Unknown
Orbital elements
Apogee altitude
496.79 km
Perigee altitude
493.019 km
Semi-major axis
6,873.041 km
Eccentricity
0.00027
Inclination
44.9931°
RAAN
83.7306°
Arg. of periapsis
183.8606°
True anomaly
176.22757°
Mean anomaly
176.2255°
Eccentric anomaly
176.22653°
Mean motion
3.80908 °/min
Orbital period
94.51 mins
BSTAR
0.00044551
Loading maneuver chart data...
Computing Atmospheric mass density...
Loading historical data...
Loading historical data...
Loading historical data...
Loading historical data...
Loading historical data...
Loading historical data...
Loading historical data...

Documentation

Showing up to 5 results
|